{"data":{"norad_id":62488,"epoch":"2026-09-21T16:52:51.325248Z","epoch_age_seconds":70600,"freshness":"FRESH","line1":"1 62488U 25003B   26264.70337182  .00008938  00000+0  33366-3 0  9990","line2":"2 62488  43.0032 261.6144 0001555 272.3689  87.6984 15.27605611 96538","mean_motion":15.27605611,"eccentricity":0.0001555,"inclination_deg":43.0032,"raan_deg":261.6144,"arg_perigee_deg":272.3689,"mean_anomaly_deg":87.6984,"bstar":0.00033366,"rev_number":9653,"period_min":94.265168288911,"perigee_km":481.90550605055,"apogee_km":484.03931107661,"semimajor_km":6861.1094085636,"source":"CELESTRAK","updated_at":"2026-09-22T09:00:49.616212Z"}}